Regional Weather Roundup
Issued by NWS

Home | Current Version | Previous Version | Graphics & Text | Print | Product List | Glossary On
Versions: 1 2 3 4 5 6 7 8 9 10 11 12 13 14 15 16 17 18 19 20 21 22 23 24 25 26 27
000
ASUS45 KBOU 292307
RWRCO

WEATHER ROUNDUP FOR COLORADO
NATIONAL WEATHER SERVICE DENVER/BOULDER CO
500 PM MDT SAT APR 29 2017

NOTE: "FAIR" INDICATES FEW OR NO CLOUDS BELOW 12000 FEET WITH NO
SIGNIFICANT WEATHER AND/OR OBSTRUCTIONS TO VISIBILITY.

COZ001>005-013-030-031-300000-
...NORTHWEST COLORADO...

CITY           SKY/WX    TMP DP  RH WIND       PRES   REMARKS
CRAIG          CLOUDY    46  17  31 N3        30.06F
HAYDEN         FAIR      41  18  38 W6        30.07R
MEEKER         CLOUDY    45  24  43 N13       30.06R
MOUNT WERNER   NOT AVBL
STEAMBOAT SPGS CLOUDY    39  20  47 E3        30.06S
WALDEN           N/A     30  16  55 E7        30.12R WCI  23
$$

COZ006>008-011-300000-
...WEST CENTRAL VALLEYS...

CITY           SKY/WX    TMP DP  RH WIND       PRES   REMARKS
GRAND JUNCTION PTSUNNY   54  20  26 NW15G23   30.02S
MONTROSE       CLOUDY    46  30  53 E5        30.01F
EAGLE          CLOUDY    36  23  60 SE15      30.11S
RIFLE          CLOUDY    48  21  34 E8        30.02F
DELTA          CLOUDY    55  22  27 NE8       29.99R
NUCLA          CLOUDY    50  18  27 N14G20    30.03F
$$

COZ017>023-064>068-300000-
...SOUTHWEST COLORADO...

CITY           SKY/WX    TMP DP  RH WIND       PRES   REMARKS
DURANGO        FAIR      45  23  42 SW12      29.93R
CORTEZ         PTSUNNY   52  24  33 N18G30    29.96R
PAGOSA SPRINGS CLOUDY    40  21  45 NE7       29.95R
TELLURIDE      CLOUDY    35  20  55 N8        30.02R WCI  29
WOLF CREEK PAS PTSUNNY   18  12  79 N12G20    30.02R WCI   5
$$

COZ009-010-012-014-032>034-037-058>063-300000-
...CENTRAL COLORADO...

CITY           SKY/WX    TMP DP  RH WIND       PRES   REMARKS
ASPEN          PTSUNNY   38  17  42 VRB6      30.01S
BUENA VISTA    LGT SNOW  29  24  82 CALM      30.05S
COPPER MTN     LGT SNOW  19  14  79 MISG      30.03F
BERTHOUD PASS  LGT SNOW  10   0  61 NE3       30.04R VSB 1
COTTONWOOD PAS LGT SNOW  27  23  86 CALM      30.04R VSB 3/4
GUNNISON       FAIR      40  15  36 NE8       29.98S
KREMMLING      CLOUDY    36  27  69 S3        30.11S
LEADVILLE      CLOUDY    24  16  71 N10       30.02S WCI  14
SALIDA         CLOUDY    31  28  86 W6        30.14R WCI  25
SUNLIGHT       CLOUDY    21  16  79 CALM      30.09S
WILKERSON PASS LGT SNOW N/A N/A N/A NE8       30.05R VSB 1
$$

COZ069>075-300000-
...SAN LUIS VALLEY/SANGRE DE CRISTO MOUNTAINS...

CITY           SKY/WX    TMP DP  RH WIND       PRES   REMARKS
ALAMOSA        LGT SNOW  28  24  85 N14       30.00R FOG     WCI  17
LA VETA PASS   SNOW      16  12  86 N15G23    30.09S VSB 1/4 WCI   1
SAGUACHE       CLOUDY    36  14  41 N14       30.00S
$$

COZ035-036-038>040-300000-
...NORTHERN COLORADO FRONT RANGE...

CITY           SKY/WX    TMP DP  RH WIND       PRES   REMARKS
DENVER INTL AP LGT SNOW  30  27  88 N20       30.17R VSB 3/4 WCI  17
DMNS CITY PARK   N/A     32  26  78 N8G25     30.19R WCI  24
AURORA         LGT SNOW  29  29  99 N16       30.17R FOG     WCI  18
FRONT RANGE AP LGT SNOW  32  30  93 N17       30.17S VSB 1   WCI  21
ERIE MUNI ARPT CLOUDY    33  28  81 N13       30.20R WCI  24
BOULDER MUN AP CLOUDY    34  27  75 N10G18    30.20R HAZE    WCI  26
CENTENNIAL     LGT SNOW  28  26  92 N17       30.16R VSB 1   WCI  16
BROOMFIELD     LGT SNOW  32  28  86 N18       30.18S VSB 3/4 WCI  20
FORT COLLINS   MIX PCPN  34  24  67 NE17G25   30.20S WCI  23
LONGMONT       CLOUDY    38  25  59 N14G20    30.21S
$$

COZ041-046-047-076>085-087-088-300000-
...PIKES PEAK/PALMER DIVIDE AND SOUTHERN FOOTHILLS...

CITY           SKY/WX    TMP DP  RH WIND       PRES   REMARKS
COLO. SPRINGS  CLOUDY    32  22  66 N25G33    30.07R WCI  19
A. F. ACADEMY  LGT SNOW  27  23  86 N25G37    30.07S WCI  11
SCHRIEVER AFB  PTSUNNY   29  23  77 N25G35    30.07R WCI  15
ELLICOTT       LGT RAIN N/A N/A N/A N32G40    30.04R
FALCON         PTSUNNY   28  21  75 N25G39    30.06S HAZE    WCI  13
FORT CARSON    CLOUDY    32  23  69 N29G43    30.05R WCI  18
LIMON          LGT SNOW  30  27  88 N25G33    30.09R FOG     WCI  16
MONUMENT HILL  CLOUDY    25  21  86 N18G25    30.12R FOG     WCI  11
TRINIDAD       LGT SNOW  29  24  82 N20G29    30.08R VSB 3/4 WCI  16
$$

COZ042>045-048>051-090-091-300000-
...NORTHEAST COLORADO...

CITY           SKY/WX    TMP DP  RH WIND       PRES   REMARKS
GREELEY ARPT   FLURRIES  34  29  82 N17       30.21F WCI  23
AKRON          CLOUDY    38  19  46 N22G31    30.11S
BURLINGTON     NOT AVBL
WRAY           NOT AVBL
STERLING       CLOUDY    41  27  56 NE21G26   30.12S
HOLYOKE        FAIR      45  21  39 NE18G25   30.10S
FORT MORGAN    CLOUDY    38  23  55 N22       30.17R
$$

COZ086-089-092>099-300000-
...SOUTHEAST COLORADO...

CITY           SKY/WX    TMP DP  RH WIND       PRES   REMARKS
PUEBLO         CLOUDY    36  27  69 NE13      30.10R
LA JUNTA       LGT SNOW  34  31  88 N24G39    30.07F VSB 3/4 WCI  21
LAMAR          LGT SNOW  34  31  88 N17G28    30.01R VSB 1   WCI  23
SPRINGFIELD      N/A     31  30  96 N35G40    29.94F WCI  15
$$




USA.gov is the U.S. government's official web portal to all federal, state and local government web resources and services.